Wind_Speed
11 13 13 11 13 17 10 1 3 4 6 6 6 7 8 7 7 7 7 5 4 3 2 2 2 3 4 5 6 7 8 8 8 9 9 9 10 10 11 11 12 12 12 12 11 10 9 8 8
9 10 10 10 14 14 6 3 3 3 2 3 3 4 5 5 6 6 5 4 4 3 3 1 1 2 4 5 7 8 8 8 9 9 9 9 9 9 10 11 11 12 12 12 12 11 10 9 8
8 8 7 7 15 12 6 4 3 3 3 2 0 1 2 2 4 4 5 5 4 4 3 2 1 1 3 5 6 7 8 9 9 9 9 8 8 8 10 10 10 11 11 11 11 11 11 10 9
8 7 6 10 10 7 5 4 5 4 3 3 4 3 3 3 4 5 6 6 5 5 5 4 3 3 4 4 5 7 8 9 10 9 9 9 8 8 9 10 11 11 10 10 10 10 11 10 9
9 9 7 6 3 2 5 2 4 4 3 3 6 6 7 7 8 9 9 9 8 8 8 7 7 7 6 6 6 7 8 9 10 10 10 10 9 9 10 10 11 11 10 9 9 9 10 10 10
12 11 7 1 1 5 9 4 2 5 4 3 4 5 8 9 10 11 12 13 12 11 11 10 10 10 9 9 8 8 9 9 10 11 11 12 12 12 13 13 12 12 11 9 9 8 9 9 10
13 12 8 1 4 8 13 9 5 6 5 4 5 6 5 7 10 11 13 14 14 13 13 12 12 12 12 11 11 10 10 11 11 12 13 14 15 16 16 16 16 14 12 11 10 9 8 8 9
11 10 8 2 5 11 16 12 9 7 8 6 7 8 5 6 8 9 11 13 14 13 13 13 13 14 14 13 13 12 12 13 13 14 15 16 17 17 18 18 17 16 15 14 12 11 10 9 9
11 11 8 3 6 10 15 9 9 10 11 9 9 10 8 8 8 9 10 12 13 13 13 13 14 15 16 15 15 14 14 15 15 16 16 17 17 18 18 18 17 17 17 16 16 14 13 12 11
13 13 8 9 12 13 12 8 10 9 10 12 12 12 11 10 10 10 10 12 13 13 13 14 15 16 16 16 16 16 16 17 17 17 18 18 19 19 19 19 19 18 18 18 18 18 18 16 14
16 17 16 16 17 17 13 11 12 8 10 14 15 15 14 14 14 13 13 14 14 15 15 15 16 17 18 18 18 19 19 19 20 20 20 20 20 20 20 21 21 21 21 21 21 21 21 21 20
21 21 21 19 18 18 17 16 15 14 16 20 19 19 18 18 19 18 17 17 17 18 19 19 19 20 21 21 22 22 22 23 23 23 23 24 24 24 24 24 24 25 25 25 24 24 24 25 25
26 25 25 23 22 22 22 21 20 20 22 25 24 24 24 24 24 23 22 22 22 22 23 23 23 24 25 25 26 26 26 27 27 27 27 28 28 28 29 29 29 30 29 29 28 28 27 28 28
30 30 28 26 26 27 28 26 24 24 27 29 28 28 28 28 28 28 28 27 27 27 27 27 28 28 29 29 29 30 30 30 31 31 30 31 32 32 33 33 34 34 34 33 33 33 32 31 31
33 31 29 28 29 31 32 30 27 26 28 31 32 31 31 32 32 32 33 32 32 32 32 32 32 33 33 33 34 34 34 34 34 35 35 35 36 37 37 38 37 38 37 37 37 36 36 36 36
33 32 32 27 28 31 33 32 26 25 31 35 34 33 33 36 36 36 37 37 37 37 37 36 37 37 37 38 38 38 38 38 39 39 39 39 39 40 41 41 41 41 41 40 40 40 40 39 39
29 29 27 21 26 32 33 30 24 28 34 37 37 37 38 42 42 42 41 42 42 42 42 42 42 42 42 41 41 40 41 41 42 42 42 42 42 43 44 44 43 44 44 44 43 42 42 42 43
16 15 15 14 22 30 33 28 24 28 37 41 41 42 43 44 46 46 44 44 45 45 45 45 45 45 45 43 42 42 42 42 43 44 45 46 46 45 46 46 46 45 45 44 45 44 44 44 43
23 23 22 20 25 35 36 32 26 27 37 42 43 43 43 43 44 42 41 42 43 44 45 45 45 45 45 43 42 42 42 43 43 44 45 47 48 48 48 48 47 47 46 45 45 44 45 44 43
17 18 20 20 25 31 31 28 24 27 33 37 38 37 39 40 40 41 40 38 39 40 42 42 43 43 44 44 43 42 42 43 43 45 46 48 49 50 51 50 49 48 48 46 45 45 46 44 44
12 13 17 21 24 25 25 25 23 26 31 35 37 37 38 38 39 40 40 40 39 39 40 41 42 43 43 44 44 44 44 45 45 46 48 49 50 52 51 51 49 48 48 47 46 46 46 45 44
15 19 24 25 26 26 24 26 22 23 30 36 38 37 34 34 36 38 39 40 40 40 41 42 43 44 45 46 46 47 47 47 47 48 49 50 51 51 52 51 50 49 48 46 45 45 44 44 43
20 22 24 24 24 24 20 23 21 20 28 35 36 35 33 35 37 38 38 38 38 39 40 40 41 42 44 45 46 47 47 47 48 49 49 51 52 52 52 51 51 50 48 46 44 44 43 43 41
18 19 19 18 18 18 17 21 19 22 27 32 36 39 41 40 39 37 36 35 35 36 37 37 38 39 40 42 43 45 46 47 48 49 50 51 52 52 52 52 51 49 47 46 45 44 43 42 40
15 16 15 12 11 16 19 19 18 23 27 30 34 38 40 38 37 35 34 33 33 33 33 34 35 36 38 39 41 43 44 46 47 49 50 51 52 53 52 51 50 49 48 47 46 45 41 39 37
14 14 14 15 14 15 17 20 23 29 31 31 32 33 36 37 38 37 37 36 36 36 36 37 37 38 38 40 41 42 44 46 48 49 50 51 52 52 51 51 51 49 47 46 45 43 40 38 37
13 12 13 16 16 15 13 14 24 29 32 34 35 36 38 39 40 40 40 40 40 40 40 40 40 41 41 42 43 44 45 47 48 49 50 51 51 51 50 50 48 46 45 43 41 39 38 37 36
12 13 15 17 18 18 14 15 23 30 35 38 40 42 43 43 43 43 43 43 42 42 43 43 43 43 43 44 44 45 46 47 47 48 48 48 49 49 48 46 44 43 42 40 38 37 36 34 35
14 16 17 20 22 23 23 19 20 29 36 39 41 42 42 43 43 43 43 44 44 44 44 44 44 44 44 45 45 45 45 45 45 45 45 45 44 43 42 42 40 39 37 36 36 34 33 33 33
14 17 19 22 22 22 24 20 19 27 33 38 40 41 41 41 42 41 41 41 42 43 43 43 44 44 43 43 43 43 42 41 40 40 40 39 38 38 38 38 38 37 35 34 34 33 31 32 32
Wind_Direction
104 94 96 100 87 74 68 59 124 126 123 123 119 128 132 125 127 133 139 140 142 144 131 99 47 23 15 13 6 356 351 349 349 349 352 356 1 6 10 12 14 14 13 11 7 3 358 352 349
119 111 113 98 79 76 49 346 18 31 77 112 125 140 138 140 148 152 162 166 168 171 160 138 62 21 13 12 7 359 353 348 346 346 347 349 354 359 4 6 7 7 8 8 6 2 357 349 340
135 131 122 84 49 51 18 349 359 354 351 354 325 162 154 174 182 192 196 197 198 205 205 203 228 327 348 357 359 355 351 346 342 342 342 342 346 351 355 358 360 359 1 2 2 1 358 351 342
155 140 118 64 39 25 334 352 3 353 346 320 295 279 261 252 252 247 237 233 231 236 240 248 262 282 306 325 337 340 340 338 335 333 331 330 332 339 345 348 349 350 353 356 359 1 359 354 346
171 157 110 47 41 345 295 318 351 325 336 317 294 285 276 274 271 267 263 258 253 252 257 264 271 277 285 298 312 321 324 325 323 321 319 316 316 321 328 331 335 337 340 345 350 356 358 357 351
180 169 112 313 224 276 277 273 313 301 318 308 301 283 278 278 277 274 271 269 263 261 263 267 274 278 281 288 296 304 308 311 310 309 308 306 303 306 311 313 315 319 320 327 333 342 348 352 351
189 182 144 346 339 292 275 271 265 272 279 292 299 290 285 282 281 279 276 276 273 270 270 271 275 277 279 282 285 289 294 297 298 298 298 298 297 299 301 304 304 304 303 305 312 318 327 335 341
192 192 154 110 290 277 277 274 268 264 273 278 285 289 287 281 282 282 282 282 282 281 279 280 280 278 278 280 281 281 284 287 289 290 292 293 295 298 299 300 299 296 293 292 295 298 303 312 321
199 190 164 175 225 263 275 271 276 271 275 279 281 284 284 278 278 281 285 287 288 287 287 288 287 285 283 282 281 280 281 282 284 286 289 291 293 298 299 299 299 295 291 287 285 286 287 292 300
209 198 180 235 218 229 264 271 266 285 295 292 283 279 281 281 281 282 285 288 291 292 292 293 293 293 291 288 285 283 283 282 283 285 287 290 293 295 299 300 300 296 292 287 283 279 279 280 284
221 216 214 230 233 241 252 264 271 275 276 276 278 279 282 284 285 286 286 287 289 291 293 294 294 296 295 293 292 289 285 284 285 286 287 289 291 293 296 298 298 297 293 288 284 280 277 276 277
232 232 236 242 243 248 254 260 266 266 264 266 271 280 282 282 283 284 285 286 287 289 291 292 293 294 293 293 293 291 289 287 287 287 288 290 292 293 294 294 293 293 292 290 287 283 279 277 276
238 240 246 250 254 258 260 262 265 268 269 270 271 275 277 278 280 280 281 283 285 287 288 289 290 290 291 291 291 291 291 290 289 289 290 292 293 294 296 295 295 294 292 289 287 285 282 279 276
244 246 250 258 264 267 268 267 270 274 277 275 273 274 275 277 278 280 280 281 281 282 284 285 287 288 289 290 290 290 291 291 291 291 292 292 293 294 295 295 295 295 293 290 288 285 282 279 277
249 255 259 265 272 272 271 271 274 276 271 271 276 278 277 277 277 279 280 281 282 282 283 284 285 287 288 289 289 289 290 290 290 290 291 291 291 292 293 293 294 294 293 290 289 288 285 280 276
256 260 264 271 275 271 272 273 274 271 266 270 273 275 277 279 280 280 281 282 283 284 284 285 286 287 287 288 288 288 288 288 288 288 288 289 289 290 290 291 292 292 292 291 289 289 289 285 280
262 268 272 272 269 274 274 274 271 267 265 269 274 277 278 281 282 282 283 283 283 284 285 286 286 286 286 285 285 285 285 285 286 286 286 286 287 286 287 288 289 289 290 291 289 288 290 289 287
251 255 262 249 257 268 269 270 266 266 270 271 273 276 277 279 282 282 282 281 282 283 283 284 284 283 283 283 282 282 282 282 282 284 284 285 285 286 286 286 287 288 289 289 290 290 291 289 287
239 232 223 228 246 257 265 273 268 258 265 271 275 278 279 281 282 281 281 280 280 281 282 281 281 281 281 281 281 280 280 280 281 282 282 283 283 284 284 285 286 286 287 288 289 291 292 290 287
248 247 246 253 261 266 274 278 276 270 270 277 283 285 286 285 285 285 286 283 282 281 281 281 280 280 280 280 280 279 279 279 280 282 282 282 283 284 284 283 284 286 286 287 288 289 290 290 287
260 260 254 248 256 273 285 289 292 289 285 285 289 290 289 289 289 288 287 286 285 283 281 281 280 280 279 279 279 279 279 279 279 279 280 280 281 283 284 283 282 284 286 286 287 289 288 288 287
259 256 259 267 275 280 281 281 280 280 285 286 288 287 288 291 294 292 290 287 285 283 281 280 279 279 279 279 279 279 279 279 279 278 279 279 280 282 283 283 284 284 286 287 286 287 287 286 284
267 269 276 283 285 287 288 286 288 277 273 278 283 285 291 297 298 295 292 288 286 283 281 280 278 278 277 278 278 279 279 279 279 279 279 279 280 280 280 280 282 283 284 284 284 284 284 283 281
282 282 285 290 298 297 285 270 272 263 264 276 284 288 293 295 296 294 292 289 287 284 283 281 279 279 278 278 279 280 280 281 280 280 280 280 280 280 280 279 280 280 281 281 282 283 281 280 276
291 295 298 295 296 297 291 292 293 285 287 290 290 290 293 296 296 296 294 291 289 287 286 284 283 282 281 281 282 282 282 283 282 282 281 281 280 280 279 279 279 278 278 278 278 279 278 276 271
298 298 300 295 286 279 290 304 297 290 293 294 293 293 295 295 295 294 293 292 290 288 287 285 285 284 284 283 283 284 285 285 284 284 282 282 281 280 279 278 277 276 274 274 274 274 273 271 266
301 301 298 299 303 301 301 295 288 287 291 294 296 298 298 297 296 295 293 292 289 288 286 285 284 284 284 284 284 285 286 286 285 284 283 283 282 281 279 276 275 272 270 269 270 269 267 265 261
313 316 315 312 310 306 299 288 287 291 295 297 301 304 303 301 300 299 297 293 290 288 286 284 283 283 283 283 284 285 286 286 285 285 284 284 282 281 278 275 271 268 265 265 266 264 260 258 259
310 309 306 301 302 302 300 296 289 289 290 295 299 302 303 305 304 303 301 297 293 290 287 285 283 282 282 283 285 286 287 288 287 286 286 285 283 281 278 272 268 264 263 262 261 258 255 256 257
295 301 303 304 305 302 302 310 298 291 294 297 300 304 307 309 309 308 305 301 298 294 291 288 286 284 283 283 285 287 288 289 290 290 289 287 283 281 277 269 265 260 256 255 254 252 254 254 254
Height
5926 5926 5927 5928 5926 5925 5927 5928 5927 5926 5926 5926 5926 5925 5924 5925 5926 5928 5926 5925 5926 5926 5926 5927 5927 5927 5927 5926 5926 5926 5925 5925 5924 5923 5922 5920 5919 5918 5917 5916 5914 5913 5911 5910 5908 5907 5906 5905 5904
5927 5928 5929 5929 5927 5926 5929 5929 5929 5929 5929 5928 5927 5927 5927 5927 5927 5927 5926 5927 5927 5927 5927 5927 5927 5927 5927 5927 5927 5926 5926 5925 5924 5923 5922 5921 5920 5919 5918 5916 5915 5914 5912 5911 5909 5908 5906 5905 5904
5928 5929 5930 5929 5927 5928 5931 5930 5930 5930 5930 5929 5929 5929 5929 5928 5928 5928 5928 5927 5928 5928 5928 5928 5928 5928 5927 5927 5927 5926 5926 5925 5925 5924 5923 5922 5920 5919 5918 5917 5916 5915 5913 5912 5910 5908 5907 5906 5905
5928 5930 5931 5931 5931 5932 5933 5932 5931 5930 5930 5930 5930 5930 5930 5930 5930 5929 5929 5928 5928 5928 5928 5928 5928 5928 5927 5927 5926 5926 5926 5925 5924 5924 5923 5922 5921 5919 5918 5917 5916 5915 5913 5912 5911 5909 5908 5906 5905
5928 5930 5930 5932 5934 5935 5934 5933 5932 5930 5931 5930 5930 5930 5930 5930 5930 5930 5929 5929 5929 5929 5928 5928 5927 5927 5927 5926 5926 5925 5925 5925 5924 5923 5922 5921 5920 5919 5918 5917 5916 5915 5913 5912 5911 5909 5908 5906 5905
5927 5928 5930 5932 5934 5935 5934 5933 5933 5931 5931 5930 5929 5929 5929 5930 5930 5929 5929 5928 5929 5928 5927 5927 5927 5926 5926 5925 5925 5924 5924 5924 5923 5922 5921 5920 5919 5918 5917 5916 5915 5914 5913 5912 5911 5909 5908 5907 5905
5927 5928 5928 5932 5934 5934 5932 5932 5932 5931 5930 5930 5929 5928 5928 5928 5928 5928 5928 5927 5927 5928 5927 5926 5926 5925 5924 5924 5923 5923 5922 5922 5921 5920 5920 5919 5918 5917 5916 5915 5914 5913 5912 5911 5910 5909 5908 5906 5905
5926 5929 5929 5933 5936 5935 5931 5931 5930 5930 5929 5929 5929 5928 5928 5927 5927 5926 5926 5925 5925 5926 5925 5925 5925 5924 5923 5922 5922 5921 5920 5920 5919 5918 5917 5917 5916 5915 5913 5912 5911 5911 5910 5909 5908 5907 5906 5905 5904
5924 5928 5929 5932 5934 5933 5929 5930 5930 5928 5928 5929 5928 5927 5927 5926 5925 5925 5924 5924 5923 5924 5924 5924 5923 5923 5922 5921 5920 5919 5918 5918 5917 5916 5915 5914 5914 5913 5911 5910 5909 5908 5908 5907 5906 5905 5905 5904 5903
5923 5925 5927 5929 5929 5929 5929 5929 5929 5928 5928 5926 5926 5925 5925 5924 5924 5923 5923 5922 5922 5922 5922 5922 5921 5921 5920 5919 5918 5917 5916 5915 5915 5914 5913 5912 5911 5911 5910 5908 5907 5906 5905 5904 5904 5903 5902 5902 5901
5920 5922 5923 5924 5926 5927 5927 5928 5927 5928 5928 5925 5923 5920 5922 5922 5922 5921 5921 5921 5920 5920 5920 5920 5919 5918 5918 5917 5916 5915 5914 5913 5912 5911 5910 5909 5909 5908 5907 5906 5905 5903 5902 5901 5901 5900 5899 5899 5898
5917 5918 5919 5921 5923 5924 5925 5926 5926 5926 5925 5923 5922 5920 5920 5920 5919 5919 5919 5918 5918 5918 5917 5917 5916 5915 5914 5914 5913 5912 5911 5910 5909 5908 5907 5906 5906 5905 5904 5903 5902 5901 5900 5898 5897 5897 5896 5895 5894
5912 5914 5916 5918 5919 5921 5922 5923 5923 5923 5922 5920 5920 5919 5918 5917 5916 5916 5916 5916 5916 5915 5914 5914 5913 5912 5911 5910 5908 5908 5907 5906 5905 5905 5904 5903 5902 5901 5899 5898 5897 5896 5895 5894 5893 5892 5891 5891 5890
5907 5909 5911 5914 5915 5916 5917 5918 5919 5919 5917 5915 5915 5915 5914 5913 5912 5911 5911 5912 5911 5911 5910 5910 5909 5908 5906 5905 5903 5902 5901 5900 5900 5899 5899 5898 5896 5896 5895 5893 5892 5891 5889 5888 5887 5887 5886 5885 5884
5903 5906 5908 5910 5910 5910 5910 5912 5914 5914 5912 5910 5910 5910 5909 5908 5907 5906 5905 5906 5905 5905 5905 5904 5903 5902 5901 5899 5898 5896 5896 5894 5894 5893 5892 5892 5891 5889 5888 5887 5886 5885 5883 5882 5881 5880 5879 5878 5877
5900 5902 5904 5907 5905 5904 5905 5907 5908 5907 5906 5904 5904 5904 5903 5901 5901 5900 5899 5899 5898 5897 5897 5897 5896 5895 5894 5892 5891 5890 5889 5887 5886 5886 5885 5884 5884 5882 5881 5880 5878 5877 5876 5874 5873 5872 5871 5870 5869
5897 5898 5900 5904 5901 5899 5899 5900 5902 5901 5899 5897 5897 5897 5896 5894 5892 5892 5892 5891 5890 5890 5889 5889 5888 5886 5886 5884 5883 5882 5881 5880 5878 5877 5876 5876 5876 5874 5873 5871 5870 5869 5868 5866 5865 5864 5863 5861 5859
5893 5896 5899 5902 5900 5894 5892 5894 5897 5895 5892 5890 5890 5888 5887 5886 5885 5884 5884 5883 5882 5881 5881 5880 5879 5877 5876 5875 5874 5873 5872 5871 5870 5869 5868 5867 5866 5865 5864 5863 5861 5860 5859 5857 5856 5855 5853 5851 5850
5886 5888 5890 5893 5892 5887 5885 5887 5889 5889 5886 5883 5882 5880 5878 5877 5876 5874 5873 5874 5873 5872 5871 5871 5869 5868 5866 5865 5865 5864 5863 5862 5861 5860 5859 5858 5856 5855 5854 5853 5852 5850 5849 5848 5846 5845 5844 5842 5840
5882 5884 5886 5887 5885 5882 5881 5881 5881 5881 5878 5876 5875 5873 5871 5870 5868 5867 5866 5865 5863 5863 5862 5861 5859 5858 5857 5855 5854 5854 5853 5852 5852 5850 5849 5848 5846 5844 5843 5842 5841 5840 5839 5838 5836 5835 5834 5832 5830
5880 5881 5881 5880 5878 5877 5876 5876 5876 5874 5870 5868 5866 5865 5863 5862 5860 5859 5858 5856 5855 5854 5853 5851 5850 5848 5847 5845 5844 5843 5843 5842 5842 5841 5839 5838 5836 5833 5832 5831 5829 5829 5828 5828 5827 5825 5823 5822 5821
5875 5874 5873 5873 5873 5873 5873 5870 5872 5870 5865 5861 5858 5855 5853 5852 5852 5850 5849 5847 5846 5845 5843 5842 5840 5839 5837 5835 5834 5832 5831 5831 5831 5829 5828 5826 5825 5823 5821 5820 5819 5819 5818 5817 5817 5815 5813 5812 5811
5869 5868 5868 5868 5867 5867 5867 5865 5866 5865 5859 5853 5851 5848 5847 5845 5845 5843 5841 5839 5837 5835 5833 5832 5831 5829 5827 5825 5823 5821 5820 5820 5819 5818 5816 5815 5814 5812 5810 5809 5809 5808 5807 5807 5806 5805 5804 5802 5801
5864 5865 5864 5864 5863 5863 5862 5860 5859 5855 5852 5849 5848 5845 5843 5840 5839 5836 5834 5831 5829 5827 5825 5823 5821 5820 5818 5816 5814 5812 5810 5808 5807 5806 5804 5803 5802 5801 5799 5798 5797 5797 5797 5796 5796 5795 5793 5792 5791
5861 5861 5861 5861 5861 5859 5855 5852 5852 5848 5848 5847 5845 5841 5837 5834 5832 5829 5827 5824 5822 5819 5817 5815 5813 5811 5809 5807 5805 5802 5800 5798 5796 5794 5792 5790 5789 5788 5786 5785 5785 5785 5785 5785 5785 5784 5783 5782 5782
5858 5858 5858 5857 5857 5856 5856 5854 5852 5846 5844 5842 5840 5837 5833 5829 5826 5823 5820 5817 5814 5812 5810 5807 5805 5803 5800 5798 5795 5793 5790 5788 5785 5782 5780 5777 5776 5774 5774 5773 5772 5772 5773 5773 5773 5773 5773 5773 5774
5855 5855 5855 5854 5852 5852 5853 5853 5845 5841 5838 5836 5833 5830 5827 5823 5819 5815 5812 5809 5806 5803 5801 5798 5796 5793 5791 5788 5786 5783 5780 5777 5774 5770 5767 5765 5762 5760 5759 5759 5759 5759 5760 5761 5762 5762 5763 5764 5765
5853 5852 5851 5850 5848 5847 5848 5848 5843 5836 5833 5829 5826 5822 5818 5814 5810 5806 5802 5799 5796 5794 5791 5788 5786 5783 5781 5778 5775 5772 5769 5766 5762 5758 5755 5752 5749 5747 5746 5745 5746 5746 5748 5749 5751 5752 5753 5754 5756
5851 5850 5848 5847 5845 5843 5841 5844 5840 5834 5828 5824 5820 5816 5811 5806 5801 5797 5792 5789 5785 5783 5780 5777 5774 5772 5770 5767 5764 5761 5758 5754 5750 5747 5743 5740 5737 5734 5733 5733 5734 5735 5736 5738 5741 5743 5744 5746 5747
5848 5846 5845 5843 5841 5838 5835 5838 5834 5828 5823 5818 5813 5808 5803 5798 5793 5788 5783 5779 5775 5772 5768 5766 5763 5761 5759 5756 5753 5750 5747 5743 5739 5735 5731 5728 5725 5723 5721 5721 5722 5724 5727 5730 5732 5734 5737 5738 5739